This demonstration page uses our WeatherBlox Daily Observations layout. Learn more.

Left ArrowRight Arrow

38.20091, -84.87328

Hourly Observations for September 27, 2022

Temp ( °F °C ) Dew Point ( °F °C ) Humidity (%) Winds ( mph kmh ) Pressure ( in mb ) Visibility ( mi km ) Precip ( " mm )
12:53 am 00:53 Clear 51 10.6 41 5 68 68 WSW 6 9 29.99 1016 10 16 0.00 0.00
1:53 am 01:53 Clear 49 9.4 41 5 74 74 W 3 6 29.98 1015 10 16 0.00 0.00
2:53 am 02:53 Clear 47 8.3 40 4.4 76 76 WSW 5 7 29.99 1016 10 16 0.00 0.00
3:53 am 03:53 Clear 47 8.3 40 4.4 76 76 WSW 5 7 29.98 1015 10 16 0.00 0.00
4:53 am 04:53 Clear 45 7.2 40 4.4 82 82 W 3 6 29.98 1015 10 16 0.00 0.00
5:53 am 05:53 Clear 45 7.2 40 4.4 82 82 W 5 7 29.99 1016 10 16 0.00 0.00
6:53 am 06:53 Clear 44 6.7 40 4.4 85 85 W 3 6 30.01 1016 10 16 0.00 0.00
7:53 am 07:53 Sunny 45 7.2 39 3.9 80 80 Calm 30.02 1017 10 16 0.00 0.00
8:53 am 08:53 Sunny 50 10 42 5.6 74 74 W 5 7 30.04 1017 10 16 0.00 0.00
9:53 am 09:53 Sunny 56 13.3 43 6.1 62 62 W 5 7 30.06 1018 10 16 0.00 0.00
10:53 am 10:53 Sunny 60 15.6 41 5 49 49 W 12 19 30.07 1018 10 16 0.00 0.00
11:53 am 11:53 Sunny 64 17.8 40 4.4 41 41 W 12 19 30.07 1018 10 16 0.00 0.00
12:53 pm 12:53 Sunny 66 18.9 38 3.3 35 35 W 12 19 30.07 1018 10 16 0.00 0.00
1:53 pm 13:53 Sunny 66 18.9 33 0.6 29 29 NW 16 26 30.08 1019 10 16 0.00 0.00
2:53 pm 14:53 Sunny 68 20 35 1.7 30 30 W 10 17 30.07 1018 10 16 0.00 0.00
3:53 pm 15:53 Sunny 68 20 35 1.7 30 30 WNW 9 15 30.07 1018 10 16 0.00 0.00
4:53 pm 16:53 Sunny 68 20 36 2.2 31 31 NW 12 19 30.07 1018 10 16 0.00 0.00
5:53 pm 17:53 Mostly Sunny 67 19.4 35 1.7 31 31 NW 10 17 30.08 1019 10 16 0.00 0.00
6:53 pm 18:53 Sunny 63 17.2 37 2.8 38 38 WNW 5 7 30.10 1019 10 16 0.00 0.00
7:53 pm 19:53 Clear 56 13.3 40 4.4 55 55 NW 3 6 30.12 1020 10 16 0.00 0.00
8:53 pm 20:53 Clear 50 10 42 5.6 74 74 Calm 30.14 1021 10 16 0.00 0.00
9:53 pm 21:53 Clear 48 8.9 41 5 76 76 Calm 30.16 1021 10 16 0.00 0.00
10:53 pm 22:53 Clear 47 8.3 41 5 80 80 Calm 30.18 1022 10 16 0.00 0.00
11:53 pm 23:53 Clear 46 7.8 40 4.4 79 79 Calm 30.21 1023 10 16 0.00 0.00

Powered by AerisWeather